#timestamp,LO_Frequency,Hit 
1498024815.2,286046979.5,N
1498024835.0,286046981.9,N
1498024835.9,286046981.9,N
1498024855.8,286046979.9,N
1498024875.6,286046977.3,N
1498024895.4,286046977.6,N
1498024915.3,286046978.5,N
1498024935.1,286046978.8,N
1498024955.5,286046978.0,N
1498024975.3,286046977.5,N
1498024995.2,286046978.5,N
1498025015.0,286046976.2,N
1498025015.9,286046976.2,N
1498025035.7,286046975.8,N
1498025055.6,286046978.7,N
1498025075.4,286046976.5,N
1498025095.2,286046977.0,N
1498025115.1,286046978.4,N
1498025116.0,286046978.4,N
1498025135.8,286046980.3,N
1498025155.9,286046977.7,N
1498025175.7,286046975.7,N
1498025195.5,286046974.6,N
1498025215.4,286046977.0,N
1498025235.2,286046978.3,N
1498025255.0,286046976.1,N
1498025255.9,286046976.1,N
1498025275.8,286046978.0,N
1498025295.6,286046979.6,N
1498025315.4,286046979.0,N
1498025335.2,286046980.2,N
1498025355.1,286046979.1,N
1498025356.0,286046979.1,N
1498025375.8,286046979.7,N
1498025395.6,286046978.4,N
1498025415.5,286046978.2,N
1498025435.3,286046976.1,N
1498025455.1,286046979.9,N
1498025475.9,286046977.4,N
1498025495.7,286046979.9,N
1498025515.5,286046975.7,N
1498025535.3,286046976.8,N
1498025555.2,286046974.8,N
1498025575.0,286046976.9,N
1498025575.9,286046976.9,N
1498025595.7,286046974.5,N
1498025615.6,286046976.5,N
1498025635.4,286046977.0,N
1498025655.2,286046976.1,N
1498025675.1,286046977.4,N
1498025676.0,286046977.4,N
1498025695.8,286046979.9,N
1498025715.6,286046978.9,N
1498025735.5,286046981.6,N
1498025755.3,286046981.2,N
1498025775.1,286046979.1,N
1498025795.9,286046981.4,N
1498025815.7,286046979.8,N
1498025835.5,286046979.0,N
1498025855.3,286046977.9,N
1498025875.2,286046975.7,N
1498025895.0,286046977.4,N
1498025895.9,286046977.4,N
1498025915.7,286046979.3,N
1498025935.6,286046979.8,N
1498025955.4,286046980.2,N
1498025975.2,286046981.2,N
1498025995.1,286046981.7,N
1498025996.0,286046981.7,N
1498026015.8,286046979.6,N
1498026035.6,286046977.8,N
1498026055.5,286046979.1,N
1498026075.3,286046978.1,N
1498026095.1,286046978.7,N
1498026115.9,286046978.3,N
1498026135.7,286046975.8,N
1498026155.5,286046976.1,N
1498026175.3,286046978.5,N
1498026195.2,286046977.4,N
1498026215.0,286046980.0,N
1498026215.9,286046980.0,N
1498026235.7,286046980.1,N
1498026255.6,286046977.3,N
1498026275.4,286046978.9,N
1498026295.2,286046981.7,N
1498026315.1,286046981.7,N
1498026316.0,286046981.7,N
1498026335.3,286046977.3,N
1498026355.2,286046977.4,N
1498026375.9,286046981.6,N
1498026395.7,286046980.9,N
1498026415.6,286046982.8,N
1498026435.4,286046982.6,N
1498026455.2,286046979.0,N
1498026475.0,286046979.8,N
1498026476.0,286046979.8,N
1498026495.8,286046979.7,N
1498026515.6,286046980.2,N
1498026535.4,286046978.7,N
1498026555.3,286046977.9,N
1498026575.1,286046978.4,N
1498026595.8,286046976.5,N
1498026615.7,286046975.8,N
1498026635.5,286046977.8,N
1498026655.3,286046977.7,N
1498026675.2,286046975.7,N
1498026695.9,286046976.3,N
1498026715.7,286046977.1,N
1498026735.5,286046975.9,N
1498026755.4,286046975.9,N
1498026775.2,286046976.9,N
1498026795.0,286046978.7,N
1498026795.9,286046978.7,N
1498026815.8,286046975.8,N
1498026835.6,286046976.0,N
1498026855.4,286046976.0,N
1498026875.3,286046975.8,N
1498026895.1,286046976.7,N
1498026896.0,286046976.7,N
1498026915.8,286046976.1,N
1498026935.7,286046976.7,N
1498026955.5,286046974.5,N
1498026975.3,286046974.1,N
1498026995.2,286046975.3,N
1498027015.9,286046971.0,N
1498027035.7,286046972.2,N
1498027055.5,286046973.6,N
1498027075.4,286046974.0,N
1498027095.2,286046971.4,N
1498027115.0,286046970.9,N
1498027115.9,286046970.9,N
1498027135.8,286046973.8,N
1498027155.6,286046973.5,N
1498027175.4,286046973.2,N
1498027195.3,286046973.4,N
1498027215.2,286046973.3,N
1498027235.1,286046974.1,N
1498027236.0,286046974.1,N
1498027255.8,286046978.7,N
1498027275.6,286046976.3,N
1498027295.5,286046972.5,N
1498027315.3,286046972.7,N
1498027335.1,286046970.9,N
1498027355.9,286046974.0,N
1498027375.7,286046972.6,N
1498027395.5,286046974.5,N
1498027415.3,286046972.6,N
1498027435.2,286046974.6,N
1498027455.0,286046974.0,N
1498027455.9,286046974.0,N
1498027475.7,286046971.4,N
1498027495.6,286046973.4,N
1498027515.4,286046972.9,N
1498027535.2,286046973.4,N
1498027555.1,286046971.3,N
1498027556.0,286046971.3,N
1498027575.8,286046975.6,N
1498027595.6,286046973.1,N
1498027615.5,286046973.3,N
1498027635.3,286046971.8,Y
1498027655.1,286046985.1,N
1498027675.9,286046984.1,N
1498027695.7,286046986.4,N
1498027715.5,286046985.3,N
1498027735.4,286046986.8,N
1498027755.2,286046983.7,N
1498027775.0,286046983.8,N
1498027775.9,286046983.8,N
1498027795.7,286046986.5,N
1498027815.6,286046987.9,N
1498027835.4,286046988.2,N
1498027855.2,286046985.8,N
1498027875.1,286046986.6,N
1498027876.0,286046986.6,N
1498027895.8,286046985.7,N
1498027915.6,286046988.3,N
1498027935.5,286046985.3,N
1498027955.3,286046988.0,N
1498027975.1,286046988.1,N
1498027995.9,286046986.2,N
1498028015.7,286046983.8,N
1498028035.5,286046986.5,N
1498028055.3,286046986.4,N
1498028075.2,286046986.7,N
1498028095.0,286046984.8,N
1498028095.9,286046984.8,N
1498028115.7,286046984.2,N
1498028135.6,286046984.6,N
1498028155.4,286046984.8,N
1498028175.2,286046982.4,N
1498028195.1,286046984.7,N
1498028196.0,286046984.7,N
1498028215.8,286046982.7,N
1498028235.6,286046981.6,Y
1498028255.5,286046996.8,N
1498028275.3,286046999.0,N
1498028295.1,286046999.0,N
1498028315.9,286047001.2,N
1498028335.7,286046998.4,N
1498028355.5,286046996.5,N
1498028375.4,286046999.4,N
1498028395.2,286046996.6,N
